Time,TemperatureF,DewpointF,PressureIn,WindDirection,WindDirectionDegrees,WindSpeedMPH,WindSpeedGustMPH,Humidity,HourlyPrecipIn,Conditions,Clouds,dailyrainin,SolarRadiationWatts/m^2,SoftwareType,DateUTC
2015-07-01 00:00:00,75.0,61.0,29.82,WNW,287,0.0,-999.0,61,-99.99,,,0.00,0,weatherlink.com 1.10,2015-07-01 07:00:00,
2015-07-01 00:16:00,74.6,60.0,29.82,WNW,283,0.0,-999.0,61,-99.99,,,0.00,0,weatherlink.com 1.10,2015-07-01 07:16:00,
2015-07-01 00:31:00,74.2,60.0,29.82,WNW,283,0.0,-999.0,61,-99.99,,,0.00,0,weatherlink.com 1.10,2015-07-01 07:31:00,
2015-07-01 00:46:00,73.8,59.0,29.82,WNW,283,0.0,-999.0,61,-99.99,,,0.00,0,weatherlink.com 1.10,2015-07-01 07:46:00,
2015-07-01 01:01:00,73.3,59.0,29.81,WNW,283,0.0,-999.0,61,-99.99,,,0.00,0,weatherlink.com 1.10,2015-07-01 08:01:00,
2015-07-01 01:16:00,73.0,60.0,29.82,West,280,0.0,-999.0,63,-99.99,,,0.00,0,weatherlink.com 1.10,2015-07-01 08:16:00,
2015-07-01 01:31:00,72.7,59.0,29.82,West,281,0.0,-999.0,63,-99.99,,,0.00,0,weatherlink.com 1.10,2015-07-01 08:31:00,
2015-07-01 01:46:00,72.4,59.0,29.81,West,280,0.0,-999.0,64,-99.99,,,0.00,0,weatherlink.com 1.10,2015-07-01 08:46:00,
2015-07-01 02:01:00,72.1,59.0,29.82,West,281,0.0,-999.0,64,-99.99,,,0.00,0,weatherlink.com 1.10,2015-07-01 09:01:00,
2015-07-01 02:16:00,71.7,59.0,29.82,West,280,0.0,-999.0,64,-99.99,,,0.00,0,weatherlink.com 1.10,2015-07-01 09:16:00,
2015-07-01 02:31:00,71.5,59.0,29.83,West,281,0.0,-999.0,65,-99.99,,,0.00,0,weatherlink.com 1.10,2015-07-01 09:31:00,
2015-07-01 02:46:00,71.5,60.0,29.84,West,281,0.0,-999.0,67,-99.99,,,0.00,0,weatherlink.com 1.10,2015-07-01 09:46:00,
2015-07-01 03:01:00,71.4,61.0,29.85,West,280,0.0,-999.0,69,-99.99,,,0.00,0,weatherlink.com 1.10,2015-07-01 10:01:00,
2015-07-01 03:16:00,71.5,61.0,29.86,West,280,0.0,-999.0,69,-99.99,,,0.00,0,weatherlink.com 1.10,2015-07-01 10:16:00,
2015-07-01 03:31:00,71.3,60.0,29.86,NW,326,0.0,-999.0,68,-99.99,,,0.00,0,weatherlink.com 1.10,2015-07-01 10:31:00,
2015-07-01 03:46:00,72.0,60.0,29.85,ENE,69,0.0,-999.0,66,-99.99,,,0.00,0,weatherlink.com 1.10,2015-07-01 10:46:00,
2015-07-01 04:01:00,72.6,60.0,29.84,ENE,65,0.0,-999.0,64,-99.99,,,0.00,0,weatherlink.com 1.10,2015-07-01 11:01:00,
2015-07-01 04:16:00,73.0,60.0,29.84,ENE,65,0.0,-999.0,63,-99.99,,,0.00,0,weatherlink.com 1.10,2015-07-01 11:16:00,
2015-07-01 04:31:00,73.2,60.0,29.84,ENE,63,0.0,-999.0,64,-99.99,,,0.00,0,weatherlink.com 1.10,2015-07-01 11:31:00,
2015-07-01 04:46:00,73.1,61.0,29.84,ENE,63,0.0,-999.0,65,-99.99,,,0.00,0,weatherlink.com 1.10,2015-07-01 11:46:00,
2015-07-01 05:01:00,72.8,60.0,29.84,ENE,63,0.0,-999.0,65,-99.99,,,0.00,0,weatherlink.com 1.10,2015-07-01 12:01:00,
2015-07-01 05:16:00,72.5,60.0,29.85,ENE,63,0.0,-999.0,66,-99.99,,,0.00,0,weatherlink.com 1.10,2015-07-01 12:16:00,
2015-07-01 05:31:00,72.1,61.0,29.85,ENE,62,2.0,-999.0,67,-99.99,,,0.00,0,weatherlink.com 1.10,2015-07-01 12:31:00,
2015-07-01 05:46:00,71.8,61.0,29.85,ENE,57,3.0,-999.0,68,-99.99,,,0.00,0,weatherlink.com 1.10,2015-07-01 12:46:00,
2015-07-01 06:01:00,71.6,61.0,29.86,NE,56,0.0,-999.0,69,-99.99,,,0.00,9,weatherlink.com 1.10,2015-07-01 13:01:00,
2015-07-01 06:16:00,71.4,61.0,29.86,NE,44,1.0,-999.0,70,-99.99,,,0.00,21,weatherlink.com 1.10,2015-07-01 13:16:00,
2015-07-01 06:32:00,71.3,61.0,29.84,NE,41,0.0,-999.0,71,-99.99,,,0.00,42,weatherlink.com 1.10,2015-07-01 13:32:00,
2015-07-01 06:47:00,71.3,62.0,29.84,NE,38,0.0,-999.0,72,-99.99,,,0.00,65,weatherlink.com 1.10,2015-07-01 13:47:00,
2015-07-01 07:01:00,71.3,62.0,29.85,NNE,19,2.0,-999.0,72,-99.99,,,0.00,86,weatherlink.com 1.10,2015-07-01 14:01:00,
2015-07-01 07:17:00,71.4,62.0,29.86,NNE,19,0.0,-999.0,72,-99.99,,,0.00,65,weatherlink.com 1.10,2015-07-01 14:17:00,
2015-07-01 07:32:00,71.6,63.0,29.86,NNE,19,0.0,-999.0,73,-99.99,,,0.00,77,weatherlink.com 1.10,2015-07-01 14:32:00,
2015-07-01 07:47:00,71.9,63.0,29.87,NNE,19,0.0,-999.0,73,-99.99,,,0.00,130,weatherlink.com 1.10,2015-07-01 14:47:00,
2015-07-01 08:02:00,72.2,63.0,29.87,NNE,19,0.0,-999.0,72,-99.99,,,0.00,105,weatherlink.com 1.10,2015-07-01 15:02:00,
2015-07-01 08:17:00,72.6,63.0,29.88,NNE,19,0.0,-999.0,71,-99.99,,,0.00,109,weatherlink.com 1.10,2015-07-01 15:17:00,
2015-07-01 08:32:00,73.2,63.0,29.88,NNE,13,0.0,-999.0,70,-99.99,,,0.00,162,weatherlink.com 1.10,2015-07-01 15:32:00,
2015-07-01 08:47:00,73.9,63.0,29.89,North,360,0.0,-999.0,69,-99.99,,,0.00,193,weatherlink.com 1.10,2015-07-01 15:47:00,
2015-07-01 09:02:00,74.4,64.0,29.89,North,349,0.0,-999.0,69,-99.99,,,0.00,123,weatherlink.com 1.10,2015-07-01 16:02:00,
2015-07-01 09:17:00,74.9,63.0,29.89,WNW,286,5.0,-999.0,67,-99.99,,,0.00,243,weatherlink.com 1.10,2015-07-01 16:17:00,
2015-07-01 09:32:00,75.6,63.0,29.89,WNW,289,0.0,-999.0,66,-99.99,,,0.00,183,weatherlink.com 1.10,2015-07-01 16:32:00,
2015-07-01 09:47:00,76.4,64.0,29.89,WNW,284,0.0,-999.0,65,-99.99,,,0.00,214,weatherlink.com 1.10,2015-07-01 16:47:00,
2015-07-01 10:17:00,77.7,64.0,29.89,WNW,284,0.0,-999.0,63,-99.99,,,0.00,278,weatherlink.com 1.10,2015-07-01 17:17:00,
2015-07-01 10:32:00,79.0,65.0,29.88,WNW,284,0.0,-999.0,63,-99.99,,,0.00,942,weatherlink.com 1.10,2015-07-01 17:32:00,
2015-07-01 10:47:00,81.4,65.0,29.88,West,281,0.0,-999.0,57,-99.99,,,0.00,260,weatherlink.com 1.10,2015-07-01 17:47:00,
2015-07-01 11:02:00,82.0,65.0,29.88,West,279,0.0,-999.0,56,-99.99,,,0.00,248,weatherlink.com 1.10,2015-07-01 18:02:00,
2015-07-01 11:17:00,82.4,65.0,29.87,West,279,0.0,-999.0,56,-99.99,,,0.00,308,weatherlink.com 1.10,2015-07-01 18:17:00,
2015-07-01 11:32:00,82.6,65.0,29.88,West,261,2.0,-999.0,56,-99.99,,,0.00,325,weatherlink.com 1.10,2015-07-01 18:32:00,
2015-07-01 11:47:00,83.2,65.0,29.87,West,263,0.0,-999.0,55,-99.99,,,0.00,297,weatherlink.com 1.10,2015-07-01 18:47:00,
2015-07-01 12:02:00,83.9,65.0,29.86,WSW,257,4.0,-999.0,54,-99.99,,,0.00,334,weatherlink.com 1.10,2015-07-01 19:02:00,
2015-07-01 12:17:00,84.6,66.0,29.86,WSW,244,0.0,-999.0,53,-99.99,,,0.00,294,weatherlink.com 1.10,2015-07-01 19:17:00,
2015-07-01 12:32:00,85.4,65.0,29.85,SW,230,3.0,-999.0,50,-99.99,,,0.00,547,weatherlink.com 1.10,2015-07-01 19:32:00,
2015-07-01 12:47:00,86.3,64.0,29.85,WSW,237,0.0,-999.0,48,-99.99,,,0.00,425,weatherlink.com 1.10,2015-07-01 19:47:00,
2015-07-01 13:02:00,86.4,63.0,29.84,WSW,241,3.0,-999.0,46,-99.99,,,0.00,285,weatherlink.com 1.10,2015-07-01 20:02:00,
2015-07-01 13:17:00,86.4,64.0,29.84,SW,234,3.0,-999.0,47,-99.99,,,0.00,257,weatherlink.com 1.10,2015-07-01 20:17:00,
2015-07-01 13:32:00,85.7,65.0,29.86,SW,225,11.0,-999.0,51,-99.99,,,0.00,244,weatherlink.com 1.10,2015-07-01 20:32:00,
2015-07-01 13:47:00,84.3,67.0,29.86,SSW,196,0.0,-999.0,56,-99.99,,,0.00,649,weatherlink.com 1.10,2015-07-01 20:47:00,
2015-07-01 14:02:00,85.5,66.0,29.86,WNW,284,4.0,-999.0,52,-99.99,,,0.00,473,weatherlink.com 1.10,2015-07-01 21:02:00,
2015-07-01 14:18:00,85.1,66.0,29.86,WNW,294,0.0,-999.0,53,-99.99,,,0.00,332,weatherlink.com 1.10,2015-07-01 21:18:00,
2015-07-01 14:33:00,85.5,67.0,29.86,West,272,0.0,-999.0,54,-99.99,,,0.00,471,weatherlink.com 1.10,2015-07-01 21:33:00,
2015-07-01 14:48:00,86.6,66.0,29.85,WNW,286,4.0,-999.0,50,-99.99,,,0.00,468,weatherlink.com 1.10,2015-07-01 21:48:00,
2015-07-01 15:03:00,86.9,66.0,29.84,West,259,9.0,-999.0,50,-99.99,,,0.00,357,weatherlink.com 1.10,2015-07-01 22:03:00,
2015-07-01 15:18:00,86.3,67.0,29.84,WSW,248,4.0,-999.0,52,-99.99,,,0.00,411,weatherlink.com 1.10,2015-07-01 22:18:00,
2015-07-01 15:33:00,85.9,65.0,29.85,West,261,3.0,-999.0,50,-99.99,,,0.00,237,weatherlink.com 1.10,2015-07-01 22:33:00,
2015-07-01 15:48:00,85.3,65.0,29.84,SW,230,2.0,-999.0,51,-99.99,,,0.00,239,weatherlink.com 1.10,2015-07-01 22:48:00,
2015-07-01 16:03:00,84.4,64.0,29.84,West,271,0.0,-999.0,50,-99.99,,,0.00,229,weatherlink.com 1.10,2015-07-01 23:03:00,
2015-07-01 16:18:00,83.9,63.0,29.84,WSW,252,0.0,-999.0,49,-99.99,,,0.00,230,weatherlink.com 1.10,2015-07-01 23:18:00,
2015-07-01 16:33:00,83.5,63.0,29.84,SW,232,4.0,-999.0,50,-99.99,,,0.00,223,weatherlink.com 1.10,2015-07-01 23:33:00,
2015-07-01 16:48:00,83.1,63.0,29.84,WSW,244,2.0,-999.0,51,-99.99,,,0.00,216,weatherlink.com 1.10,2015-07-01 23:48:00,
2015-07-01 17:03:00,82.8,63.0,29.84,West,259,4.0,-999.0,52,-99.99,,,0.00,225,weatherlink.com 1.10,2015-07-02 00:03:00,
2015-07-01 17:18:00,82.3,63.0,29.84,WSW,246,10.0,-999.0,53,-99.99,,,0.00,214,weatherlink.com 1.10,2015-07-02 00:18:00,
2015-07-01 17:33:00,81.8,63.0,29.84,WSW,244,3.0,-999.0,53,-99.99,,,0.00,156,weatherlink.com 1.10,2015-07-02 00:33:00,
2015-07-01 17:48:00,81.3,62.0,29.83,WSW,252,1.0,-999.0,53,-99.99,,,0.00,135,weatherlink.com 1.10,2015-07-02 00:48:00,
2015-07-01 18:03:00,80.7,61.0,29.84,WSW,257,3.0,-999.0,52,-99.99,,,0.00,148,weatherlink.com 1.10,2015-07-02 01:03:00,
2015-07-01 18:18:00,80.2,61.0,29.85,WSW,242,4.0,-999.0,53,-99.99,,,0.00,111,weatherlink.com 1.10,2015-07-02 01:18:00,
2015-07-01 18:33:00,79.7,61.0,29.85,WSW,244,3.0,-999.0,53,-99.99,,,0.00,77,weatherlink.com 1.10,2015-07-02 01:33:00,
2015-07-01 18:48:00,79.2,62.0,29.86,SW,215,10.0,-999.0,55,-99.99,,,0.00,44,weatherlink.com 1.10,2015-07-02 01:48:00,
2015-07-01 19:03:00,78.4,62.0,29.87,WSW,244,2.0,-999.0,57,-99.99,,,0.00,28,weatherlink.com 1.10,2015-07-02 02:03:00,
2015-07-01 19:18:00,77.5,61.0,29.87,WSW,248,4.0,-999.0,58,-99.99,,,0.00,26,weatherlink.com 1.10,2015-07-02 02:18:00,
2015-07-01 19:33:00,76.8,62.0,29.88,WSW,252,0.0,-999.0,60,-99.99,,,0.00,19,weatherlink.com 1.10,2015-07-02 02:33:00,
2015-07-01 19:48:00,76.2,62.0,29.88,West,260,0.0,-999.0,61,-99.99,,,0.00,11,weatherlink.com 1.10,2015-07-02 02:48:00,
2015-07-01 20:03:00,75.3,62.0,29.88,WSW,249,3.0,-999.0,63,-99.99,,,0.00,0,weatherlink.com 1.10,2015-07-02 03:03:00,
2015-07-01 20:18:00,74.5,61.0,29.89,SW,227,5.0,-999.0,64,-99.99,,,0.00,0,weatherlink.com 1.10,2015-07-02 03:18:00,
2015-07-01 20:33:00,73.9,61.0,29.89,WSW,240,0.0,-999.0,65,-99.99,,,0.00,0,weatherlink.com 1.10,2015-07-02 03:33:00,
2015-07-01 20:48:00,73.4,61.0,29.89,WSW,244,0.0,-999.0,65,-99.99,,,0.00,0,weatherlink.com 1.10,2015-07-02 03:48:00,